GFSNE_925_spd_147.txt.gz
Wind_Speed
7 9 13 17 18 18 16 14 11 8 11 8 10 18 22 23 20 21 21 23 26 31 38 41 47 48 50 52 53 54 53 51 49 49 48 48 46 46
22 19 13 8 5 3 8 14 20 17 10 7 16 22 24 22 19 20 18 17 15 18 22 29 34 39 45 49 52 52 53 52 50 48 47 46 46 47
28 30 24 15 11 9 8 8 10 7 8 12 19 10 9 13 14 15 13 9 21 16 6 7 17 32 44 46 51 42 47 50 50 46 43 43 46 48
32 26 31 25 22 16 11 9 7 9 4 5 11 14 15 19 15 19 18 20 15 29 27 5 4 7 15 13 18 14 28 24 35 39 39 40 47 45
35 34 33 34 30 27 22 19 16 14 17 14 10 15 11 23 21 19 19 22 23 25 25 27 28 21 20 19 7 9 15 31 35 31 29 29 33 37
35 36 35 36 37 31 30 26 24 23 22 22 21 16 14 20 20 21 16 21 29 25 22 28 25 27 28 26 27 24 17 15 12 21 25 32 32 37
35 34 34 31 34 38 37 36 31 27 25 25 21 20 21 17 23 19 11 5 16 23 22 28 26 27 29 28 28 27 26 24 21 14 8 15 21 28
33 33 33 34 31 33 35 39 41 32 29 25 24 23 25 22 24 21 19 10 4 26 13 26 23 29 31 34 31 27 24 25 24 24 22 14 11 13
39 35 34 35 34 30 30 33 36 36 35 30 25 28 27 27 23 24 20 16 15 27 12 13 28 19 27 25 26 30 30 28 26 25 22 21 15 14
34 40 37 36 33 33 32 36 37 35 35 33 32 31 31 34 26 23 19 6 16 37 26 11 28 17 11 23 27 28 27 27 26 27 27 26 22 17
32 33 36 35 32 30 34 31 33 35 29 28 29 28 31 31 35 27 30 21 11 17 37 11 23 18 10 19 25 28 27 26 25 27 29 27 27 20
32 32 31 31 30 30 33 29 30 30 31 34 35 37 36 36 36 38 25 23 14 11 31 10 23 20 8 12 26 29 28 25 27 28 27 23 23 24
28 29 27 27 29 30 30 31 27 28 30 30 31 31 34 36 36 33 34 29 24 14 26 25 22 22 10 13 20 25 25 23 31 32 30 24 20 20
23 23 24 24 25 28 30 26 25 29 27 28 29 32 31 33 32 31 28 25 24 26 27 30 20 25 18 13 9 21 27 20 29 32 32 29 23 18
19 19 19 22 25 24 27 30 32 29 27 28 28 28 28 26 27 27 31 27 24 26 28 29 30 25 24 18 16 20 23 26 32 31 29 29 29 21
17 20 22 22 23 24 25 30 31 31 30 28 27 28 27 26 27 27 28 29 24 29 28 29 29 28 26 24 17 20 24 16 32 32 29 25 29 25
18 21 24 24 25 26 27 28 28 28 27 27 24 25 25 23 23 23 24 24 22 24 27 29 29 26 25 21 13 24 25 24 29 29 29 24 25 24
20 23 24 23 21 22 22 24 25 26 26 23 24 24 25 23 21 21 21 21 20 20 22 24 26 29 29 21 16 25 27 25 25 28 25 22 20 27
21 21 21 20 19 20 20 21 20 21 21 21 22 21 23 21 19 19 20 20 20 19 19 20 21 22 10 9 19 20 28 28 30 29 26 25 25 30
16 18 18 17 16 17 18 19 19 20 21 20 20 20 22 20 18 18 18 19 19 18 20 21 22 24 19 12 20 30 22 28 28 26 28 31 29 29
13 14 15 15 15 15 16 16 16 18 19 17 19 21 21 20 18 17 21 20 19 18 20 21 23 25 23 24 18 23 28 24 27 28 28 25 23 24
11 12 12 12 12 14 15 14 15 17 16 17 20 21 19 17 18 17 21 18 17 19 20 22 25 25 25 22 21 25 27 36 32 28 24 20 18 5
9 9 9 9 12 14 14 12 12 15 14 19 21 19 18 18 17 17 20 19 17 19 21 23 24 24 24 23 24 26 29 30 31 32 37 29 25 24

GFSNE_925_spd_153.txt.gz
Wind_Speed
23 24 17 14 10 10 12 14 8 2 2 5 6 12 15 14 12 15 20 18 12 13 13 10 8 8 11 12 15 17 19 28 36 44 47 49 52 54
26 26 23 18 12 10 8 3 13 7 2 2 7 8 6 12 17 18 23 25 28 26 24 21 17 9 5 9 14 18 18 22 28 32 44 46 51 50
31 27 27 23 17 15 10 8 7 3 3 4 9 8 12 18 16 21 23 27 31 35 33 32 30 30 21 18 13 10 17 20 19 23 31 39 41 41
29 29 31 27 26 23 18 16 14 9 3 9 7 15 15 20 18 19 19 26 27 30 33 37 37 37 36 31 27 23 13 13 9 7 10 13 26 40
28 29 31 31 29 27 25 23 20 18 21 14 10 12 11 18 14 25 24 23 24 24 30 32 35 36 36 37 34 32 31 24 20 12 13 11 14 9
26 28 30 34 33 29 28 26 24 22 23 21 18 14 11 14 16 14 19 27 27 26 28 30 28 30 33 33 34 34 34 33 30 27 22 16 16 17
26 24 26 28 31 36 34 31 27 24 23 21 20 20 19 17 18 16 8 15 28 27 26 26 27 31 33 33 32 31 32 31 30 30 30 24 20 20
25 26 24 26 26 29 34 36 36 28 28 24 22 17 21 18 19 20 18 5 4 21 15 22 24 27 30 31 28 31 32 32 33 29 25 29 25 20
31 28 27 26 24 24 28 30 35 34 33 27 28 26 19 20 17 14 20 20 13 18 9 14 17 23 24 25 28 25 26 28 28 28 27 25 23 21
31 30 30 28 25 25 31 32 34 34 34 33 33 31 31 22 19 14 11 15 24 29 16 9 24 12 17 19 25 28 25 26 26 27 27 28 25 22
29 27 29 28 24 24 30 32 33 31 24 25 27 27 29 32 29 25 25 12 10 18 29 10 23 14 6 20 21 29 26 27 27 26 27 27 29 22
27 27 25 25 24 25 30 29 31 27 28 28 32 33 33 32 34 35 29 23 11 10 29 6 23 17 6 6 18 28 30 26 27 26 25 26 26 25
23 24 24 23 24 25 26 28 24 23 27 31 32 33 33 32 31 31 31 31 21 19 23 9 22 15 8 9 14 27 32 24 31 30 29 27 26 24
20 18 17 18 22 22 25 23 24 27 29 30 31 32 31 29 26 22 23 23 23 23 22 24 13 18 13 8 8 26 31 21 31 33 33 30 25 24
15 15 15 16 17 20 19 21 26 28 28 29 27 24 23 23 23 22 18 19 21 23 23 24 21 18 13 9 8 16 24 23 33 34 35 33 31 30
11 13 14 15 18 19 21 20 21 22 24 22 20 19 19 20 24 22 21 16 19 21 23 23 24 18 13 12 15 18 21 14 26 28 30 31 33 30
9 12 14 16 18 19 20 19 19 19 19 19 19 19 19 17 18 19 17 15 15 16 18 19 22 14 7 6 11 19 23 23 25 27 27 25 29 32
10 14 15 15 16 16 16 17 17 17 17 16 17 16 14 13 13 14 16 14 14 16 18 21 25 20 16 7 8 15 21 22 25 25 24 23 25 35
12 12 12 12 12 12 13 13 14 13 12 15 15 15 13 13 13 16 19 20 17 18 19 21 23 22 11 8 13 15 27 27 26 24 25 24 27 32
9 8 8 8 9 10 9 10 9 10 13 14 14 14 12 12 14 13 17 18 16 15 15 18 20 20 15 8 13 27 24 25 28 29 29 29 26 27
6 6 5 6 7 7 6 5 5 8 11 13 13 13 11 10 11 11 12 14 14 13 14 17 20 18 17 16 13 19 28 23 24 25 27 23 23 23
3 3 3 5 6 6 5 3 3 7 11 13 11 11 10 8 8 10 9 11 13 12 11 14 18 19 18 15 17 21 25 33 30 27 20 18 24 11
2 1 1 2 5 6 6 4 4 7 9 11 11 9 10 8 6 7 8 7 10 13 13 15 17 17 17 16 18 20 24 27 28 31 32 26 26 25

GFSNE_925_spd_159.txt.gz
Wind_Speed
19 20 20 16 15 14 13 13 8 3 3 10 5 17 17 21 21 27 30 32 27 28 27 25 25 20 16 14 13 15 16 15 22 18 9 18 21 19
20 23 23 19 15 13 12 12 11 13 3 9 10 14 14 16 24 26 25 36 38 37 37 37 36 35 31 25 21 20 17 11 6 11 8 6 7 12
22 25 27 22 18 16 12 12 10 9 5 6 9 13 19 22 20 21 23 36 35 36 38 36 35 37 37 36 34 29 24 15 13 8 4 12 4 8
21 24 28 27 22 19 15 15 15 12 2 8 9 13 18 17 21 20 18 30 33 34 37 37 37 38 37 37 35 33 31 28 25 23 18 15 7 10
19 22 25 29 29 23 20 18 18 16 16 11 8 12 14 15 18 18 22 21 20 26 32 31 36 37 35 36 34 32 31 29 28 26 24 22 22 18
17 20 23 27 32 27 24 22 21 20 21 17 14 11 12 15 14 13 21 21 23 22 22 24 29 33 34 34 34 31 31 30 29 27 25 22 21 20
17 17 21 23 25 31 31 28 23 22 20 18 18 16 15 16 12 8 11 16 23 19 21 25 28 32 31 32 30 28 29 28 27 27 25 24 23 23
17 18 18 19 20 25 28 33 32 25 26 21 18 14 17 14 18 12 6 4 3 19 13 22 24 28 28 25 26 27 27 27 26 25 24 21 19 20
19 18 19 20 17 18 22 25 31 31 28 23 24 23 14 13 12 16 17 14 9 11 6 14 14 19 18 25 25 26 26 25 24 24 23 21 18 19
21 19 20 20 21 18 19 22 24 28 28 24 24 25 23 13 8 6 9 12 12 17 12 7 10 8 12 16 26 23 25 25 25 24 24 23 19 16
20 21 20 21 19 20 23 23 22 21 20 22 24 25 28 30 22 13 13 5 9 13 21 8 12 4 4 11 18 22 24 26 25 25 25 25 23 17
16 17 20 20 19 19 19 18 20 17 17 19 22 24 27 30 32 28 19 19 8 6 19 7 11 8 2 6 14 21 18 25 24 24 25 26 26 19
13 14 16 17 18 19 19 18 16 13 15 16 18 19 20 22 24 25 24 21 15 14 16 8 14 10 5 6 8 20 18 22 23 23 23 25 24 23
11 10 11 13 16 17 17 16 16 15 13 15 17 19 19 18 16 17 18 19 18 17 16 16 8 12 10 8 9 20 19 16 22 23 22 22 22 22
9 11 11 11 12 14 16 16 17 15 14 16 16 16 15 14 13 13 12 12 15 17 19 18 13 10 10 9 8 16 19 14 24 24 23 21 21 20
7 8 9 11 12 13 12 14 15 15 14 14 13 12 12 13 15 14 14 12 11 13 15 17 14 8 6 6 9 13 15 12 19 19 19 16 17 18
6 6 6 7 8 10 11 12 12 13 13 12 11 11 12 12 14 14 14 13 14 15 17 18 17 11 8 8 9 15 17 16 17 20 20 19 15 17
4 5 6 6 7 7 8 9 10 11 11 11 10 10 11 11 11 13 13 13 14 15 17 19 20 17 11 8 12 17 17 18 19 20 18 20 21 20
5 6 6 5 5 5 6 7 7 8 8 9 10 9 9 9 10 11 11 11 11 11 12 13 16 15 11 6 5 9 16 16 18 18 16 17 17 18
5 4 4 4 3 4 4 4 5 6 7 7 8 8 8 7 8 8 9 10 9 10 10 11 13 14 12 11 11 12 12 15 18 18 19 19 16 18
4 4 4 3 3 3 3 3 4 5 6 6 6 7 7 6 6 6 6 7 8 9 9 11 12 11 11 11 10 15 17 14 16 16 18 17 19 22
5 4 3 3 3 2 2 2 2 3 4 5 6 5 6 5 5 5 6 7 7 8 9 10 12 12 12 13 14 16 19 23 17 16 12 11 15 15
5 5 4 3 2 2 2 2 1 2 3 5 5 5 5 5 5 5 6 7 8 9 10 12 13 11 12 12 13 15 17 19 20 22 18 16 18 17

GFSNE_925_spd_162.txt.gz
Wind_Speed
16 18 18 15 14 13 13 12 8 3 3 7 7 12 15 20 26 24 37 34 36 35 36 34 30 26 22 20 16 14 14 15 13 14 17 24 24 19
16 18 20 18 14 13 13 12 12 9 3 7 9 14 13 17 21 24 31 36 37 37 39 38 35 34 34 32 29 27 25 21 18 15 12 12 9 9
16 18 21 20 16 15 14 13 11 11 5 3 8 11 13 18 19 24 30 32 37 35 38 40 39 38 36 35 35 33 31 30 26 20 17 12 6 6
17 19 22 23 20 18 15 15 13 14 6 7 13 14 16 16 18 21 21 26 34 34 34 41 39 36 35 37 36 34 32 31 30 28 26 23 22 17
16 18 21 23 24 21 18 17 15 14 16 11 9 12 15 17 15 19 22 20 27 25 28 38 38 35 32 36 36 34 33 32 30 28 27 26 25 24
13 16 19 23 26 23 20 19 18 15 15 14 14 13 12 14 15 12 18 21 20 19 20 25 30 29 31 33 33 31 31 31 29 29 26 25 26 26
13 14 16 18 22 27 26 21 20 18 17 15 16 15 16 16 14 12 10 18 26 23 18 26 31 23 29 32 32 30 30 29 29 27 26 26 25 25
13 13 15 16 15 21 25 28 28 21 21 17 17 13 16 13 16 13 9 6 3 16 18 20 24 26 26 30 28 27 29 28 28 28 26 24 24 24
14 13 14 16 15 15 17 21 27 26 25 20 21 20 14 13 12 13 13 13 10 10 7 13 14 17 20 24 27 27 27 28 28 28 28 23 20 20
14 14 14 16 17 14 15 18 21 25 25 22 22 22 20 12 8 6 6 10 11 13 12 9 8 10 12 16 22 24 26 27 27 27 27 25 19 16
15 16 14 15 15 14 14 16 17 17 16 18 20 21 25 27 21 12 11 2 8 12 17 6 11 5 8 12 16 19 24 23 24 25 26 26 21 15
10 12 17 16 17 16 14 13 16 15 14 15 16 18 21 24 27 24 17 16 8 7 19 8 10 6 4 7 14 17 15 22 22 23 25 26 26 18
7 9 12 13 15 16 16 14 12 10 12 13 15 16 18 20 21 22 21 20 15 14 16 8 12 9 4 3 7 17 14 19 19 19 20 22 22 21
7 7 7 10 13 14 13 13 12 11 11 13 14 16 17 17 16 15 16 16 16 14 14 13 8 11 9 6 8 15 12 15 18 18 17 16 16 16
7 7 7 7 8 9 14 13 12 12 11 12 13 13 13 12 12 12 11 10 11 14 16 15 11 9 9 9 9 12 14 8 17 17 16 15 15 15
5 5 4 7 9 8 8 11 12 12 11 11 10 10 9 10 12 11 11 9 10 11 14 16 13 11 9 8 10 13 14 11 16 17 16 14 13 13
5 3 2 3 4 6 7 9 10 10 10 10 9 9 9 9 11 11 10 9 10 11 12 13 12 7 8 10 10 13 13 14 16 17 16 15 12 13
3 3 3 3 4 5 6 6 8 9 10 9 9 9 9 10 9 10 10 10 10 11 12 13 14 10 3 6 10 13 13 14 16 16 15 15 15 14
3 3 3 3 3 4 4 5 6 7 7 8 8 8 8 8 8 9 9 9 9 10 11 12 14 14 9 6 8 11 14 15 17 16 16 16 17 17
4 3 3 2 2 2 3 4 4 5 6 6 7 7 7 7 7 8 8 9 9 8 8 9 11 13 11 10 11 13 10 13 16 17 18 18 17 16
5 4 4 3 2 2 3 3 3 3 4 5 5 5 6 6 6 6 6 6 8 8 8 9 9 9 9 11 9 12 13 8 14 15 17 18 17 19
5 5 4 4 3 3 3 2 1 2 2 3 4 4 4 4 5 5 6 7 8 8 8 9 10 10 10 11 12 14 15 16 15 12 12 10 14 15
6 6 5 5 4 3 3 2 2 1 1 2 3 3 4 4 5 5 6 6 7 8 9 11 11 11 11 12 13 15 17 18 18 19 17 14 16 21

GFSNE_925_spd_165.txt.gz
Wind_Speed
12 14 16 17 17 14 13 13 9 5 8 6 9 20 18 22 24 30 36 37 37 42 40 39 38 37 33 24 14 12 10 7 8 6 4 22 16 5
12 15 17 19 17 15 13 12 11 8 4 11 7 14 15 19 24 27 34 37 33 43 43 44 42 40 38 35 34 32 29 27 26 23 18 15 12 7
14 15 18 19 19 17 14 12 10 11 5 2 12 14 17 19 21 23 29 34 38 39 39 44 45 43 41 38 36 34 33 33 32 31 29 26 29 26
13 16 18 20 20 19 17 14 12 11 8 7 14 16 18 17 20 25 24 28 30 35 39 41 42 40 40 40 38 36 33 33 32 32 31 31 31 30
12 15 18 19 23 22 19 18 14 11 13 10 8 12 14 18 17 21 21 22 21 26 31 34 36 38 39 38 35 36 34 30 30 32 32 33 32 30
10 13 14 18 21 23 20 21 16 13 13 12 11 11 10 11 13 14 17 24 24 22 24 26 28 34 37 36 30 38 33 29 31 31 31 31 31 30
10 11 13 12 18 22 23 22 20 16 15 13 14 14 13 14 13 9 6 10 23 20 23 24 27 34 30 31 29 31 32 31 29 28 29 29 30 30
9 10 11 12 12 18 20 24 25 21 20 16 16 15 16 14 14 13 10 5 3 17 12 21 23 27 27 29 28 33 33 30 28 26 25 26 27 27
10 10 10 12 12 12 14 18 23 24 23 19 19 19 16 15 13 12 13 14 10 11 10 13 14 17 22 24 28 29 28 27 27 29 26 21 22 25
10 10 11 12 13 11 11 14 17 21 22 20 20 20 20 16 12 8 5 7 12 14 15 12 11 13 14 17 22 26 27 27 27 28 27 23 18 20
12 13 11 13 12 10 11 13 14 15 13 15 17 18 22 25 20 14 16 7 9 12 19 10 11 5 11 17 19 19 23 22 25 27 28 24 18 15
7 9 13 13 13 12 10 10 13 12 12 12 14 15 19 22 24 23 18 15 10 8 15 13 14 9 4 9 18 18 19 21 21 22 23 24 22 17
4 6 8 11 12 13 12 11 10 8 10 11 12 14 15 17 20 21 20 18 14 12 14 12 13 12 5 6 14 17 15 18 19 18 18 20 20 21
4 4 4 9 12 12 11 11 10 8 9 10 11 13 14 14 14 13 12 15 15 13 13 13 7 10 10 7 8 14 13 18 19 19 17 15 16 14
6 7 5 8 8 7 12 11 10 9 9 10 11 11 11 11 11 10 10 6 11 14 15 14 11 10 10 10 10 12 13 11 16 17 15 14 14 15
5 4 4 5 7 6 6 8 9 9 9 9 8 8 8 9 11 10 9 9 8 10 12 14 11 12 10 10 10 12 13 11 16 17 15 12 12 13
5 3 2 2 2 3 5 6 7 7 8 8 8 8 8 8 9 9 9 8 8 10 11 13 11 4 8 10 10 12 13 13 15 16 14 12 12 12
3 3 2 2 2 2 3 4 6 6 7 7 7 7 7 8 8 8 8 7 8 8 9 11 12 8 1 6 12 11 12 14 15 15 14 15 14 14
4 4 3 2 2 2 3 3 4 5 5 6 6 7 6 6 7 7 8 8 7 7 7 8 10 11 8 5 6 9 11 13 15 16 15 15 17 17
5 5 4 3 2 2 2 2 3 3 4 5 5 5 6 6 6 7 7 8 8 7 7 8 8 10 8 8 10 10 9 11 13 17 16 16 16 16
5 5 4 3 3 2 2 2 2 2 3 3 4 4 5 5 5 5 6 5 7 7 7 8 8 9 8 9 9 10 13 4 11 15 15 17 18 20
6 6 5 4 4 3 3 2 1 1 1 2 3 3 4 4 4 5 5 6 7 7 8 8 9 9 9 9 11 12 14 14 16 10 12 13 14 13
7 7 6 5 4 4 3 3 2 1 0 1 2 2 3 4 5 5 6 6 7 7 8 10 11 10 10 11 11 13 14 16 16 16 16 15 15 20

GFSNE_925_spd_171.txt.gz
Wind_Speed
8 6 5 6 5 7 6 7 5 3 4 8 10 15 14 15 20 25 26 31 35 37 39 39 40 40 42 42 41 36 26 13 12 16 17 18 19 10
6 6 7 7 7 7 8 7 6 5 3 8 9 11 15 14 16 16 23 26 32 36 37 40 39 43 43 42 42 43 42 39 36 26 12 9 11 10
7 7 9 9 8 9 9 7 7 6 5 1 8 11 10 20 18 17 19 27 28 32 34 36 39 41 43 43 43 44 43 42 41 38 33 27 26 27
10 12 14 13 11 10 10 9 10 10 6 6 9 9 13 12 21 24 21 20 27 25 28 35 37 40 40 41 41 41 44 43 42 40 38 34 32 31
10 13 17 18 16 12 11 11 11 10 10 8 8 10 11 15 14 13 21 24 22 24 27 30 35 37 38 38 39 39 36 39 39 40 39 37 34 32
10 12 17 19 19 16 14 13 12 12 11 13 12 11 9 16 16 15 10 22 19 27 27 27 29 32 35 35 33 35 35 34 33 35 37 38 35 34
10 13 14 14 14 17 18 16 14 14 13 13 13 11 13 13 17 18 10 4 20 17 28 27 28 30 33 36 36 34 29 28 31 32 33 32 35 35
10 10 11 10 10 13 16 19 18 18 20 15 14 11 16 16 16 15 17 9 4 18 11 25 28 31 30 32 29 28 27 25 28 28 31 32 33 30
10 10 9 9 8 8 13 16 18 20 22 21 19 19 14 16 12 12 11 14 9 13 8 17 26 26 26 26 25 26 26 27 21 28 30 31 28 28
10 10 12 12 8 8 11 14 14 15 17 18 18 17 19 16 7 5 5 13 15 16 7 8 20 23 21 22 22 22 25 25 26 23 24 24 25 28
9 8 10 12 8 10 13 13 14 14 11 11 11 15 19 24 19 5 10 4 6 12 15 5 12 20 23 25 23 19 21 24 23 23 21 20 18 21
11 11 10 10 8 8 9 12 13 11 10 11 11 13 19 23 25 27 21 19 6 5 17 7 12 4 5 17 21 23 19 19 21 20 19 19 18 20
10 8 10 9 9 10 11 11 9 8 8 10 14 15 16 18 20 21 24 28 20 13 15 3 17 12 8 7 19 20 20 18 19 19 17 17 18 21
12 8 11 10 9 10 9 6 7 7 7 9 10 13 14 15 13 11 15 20 24 23 15 14 12 17 16 17 7 13 19 17 20 21 16 12 15 17
10 7 8 10 10 10 8 6 8 9 8 8 9 10 9 10 10 10 5 10 17 19 17 15 14 13 15 14 13 18 7 17 17 20 21 17 15 20
11 10 10 10 11 9 7 7 9 7 6 7 9 6 7 9 10 10 13 8 9 14 13 12 11 10 14 15 15 17 17 11 14 15 16 17 15 17
13 14 11 10 10 10 7 5 5 5 5 3 6 9 7 9 9 7 11 12 10 10 11 14 7 8 12 12 13 15 14 16 17 14 13 13 12 16
14 13 10 9 11 15 12 8 4 5 4 3 3 5 8 8 9 6 5 10 12 11 9 12 12 7 2 7 9 10 12 13 16 19 17 15 16 15
16 13 14 12 10 12 12 10 5 7 4 2 2 4 6 8 9 9 9 6 9 12 8 11 15 10 6 2 4 6 8 8 14 16 16 14 14 15
17 11 17 14 12 12 11 9 8 8 5 3 2 3 5 7 5 9 8 9 10 9 8 9 12 9 4 2 4 8 9 6 13 17 18 14 12 13
18 11 15 14 12 15 14 12 9 7 7 5 4 2 3 6 5 5 4 4 9 7 9 11 10 9 10 8 7 7 8 7 13 14 15 16 13 9
14 14 16 15 14 12 10 8 7 8 9 6 4 2 2 3 4 4 4 5 7 6 7 6 8 8 11 11 11 11 12 14 12 9 12 14 16 10
19 16 15 14 13 11 8 9 9 11 11 8 6 3 2 3 1 2 2 3 3 6 7 9 9 9 9 10 11 15 15 15 12 17 13 13 18 16